TimeWEST,TemperatureF,Dew PointF,Humidity,Sea Level PressureIn,VisibilityMPH,Wind Direction,Wind SpeedMPH,Gust SpeedMPH,PrecipitationIn,Events,Conditions,WindDirDegrees,DateUTC
12:00 AM,93.2,60.8,34,30.01,6.2,WSW,5.8,-,N/A,,Scattered Clouds,250,2013-07-31 23:00:00
12:30 AM,89.6,60.8,38,29.98,6.2,Variable,2.3,-,N/A,,Scattered Clouds,0,2013-07-31 23:30:00
1:00 AM,88,62,32,29.88,6,WSW,4.6,,,,Scattered Clouds,250,2013-08-01 00:00:00
1:00 AM,87.8,62.6,43,29.98,6.2,WSW,4.6,-,N/A,,Scattered Clouds,250,2013-08-01 00:00:00
2:00 AM,87.8,60.8,40,29.95,6.2,Variable,2.3,-,N/A,,Scattered Clouds,0,2013-08-01 01:00:00
2:30 AM,86.0,60.8,43,29.95,6.2,WSW,5.8,-,N/A,,Scattered Clouds,240,2013-08-01 01:30:00
3:00 AM,87.8,60.8,40,29.92,6.2,Variable,1.2,-,N/A,,Scattered Clouds,0,2013-08-01 02:00:00
3:30 AM,86.0,60.8,43,29.92,6.2,NNW,3.5,-,N/A,,Scattered Clouds,340,2013-08-01 02:30:00
4:00 AM,86,60,32,29.81,6,ESE,2.3,,,,Scattered Clouds,110,2013-08-01 03:00:00
4:00 AM,86.0,60.8,43,29.92,6.2,ESE,1.2,-,N/A,,Scattered Clouds,110,2013-08-01 03:00:00
4:30 AM,84.2,60.8,45,29.92,6.2,East,4.6,-,N/A,,Scattered Clouds,80,2013-08-01 03:30:00
5:00 AM,84.2,59.0,42,29.89,6.2,East,4.6,-,N/A,,Scattered Clouds,100,2013-08-01 04:00:00
5:30 AM,84.2,59.0,42,29.89,6.2,Variable,3.5,-,N/A,,Scattered Clouds,0,2013-08-01 04:30:00
6:00 AM,82.4,59.0,45,29.89,6.2,East,3.5,-,N/A,,Scattered Clouds,80,2013-08-01 05:00:00
6:30 AM,82.4,57.2,42,29.92,6.2,WNW,5.8,-,N/A,,Scattered Clouds,290,2013-08-01 05:30:00
7:00 AM,78.8,55.4,44,29.92,6.2,West,3.5,-,N/A,,Scattered Clouds,260,2013-08-01 06:00:00
7:30 AM,80.6,55.4,42,29.89,6.2,East,4.6,-,N/A,,Scattered Clouds,90,2013-08-01 06:30:00
8:00 AM,84.2,55.4,37,29.92,6.2,Variable,2.3,-,N/A,,Scattered Clouds,0,2013-08-01 07:00:00
8:30 AM,87.8,50.0,27,29.92,6.2,ESE,4.6,-,N/A,,Scattered Clouds,120,2013-08-01 07:30:00
9:00 AM,91.4,48.2,23,29.92,6.2,Calm,Calm,-,N/A,,Scattered Clouds,0,2013-08-01 08:00:00
9:30 AM,93.2,51.8,24,29.92,6.2,NNW,3.5,-,N/A,,Partly Cloudy,340,2013-08-01 08:30:00
10:00 AM,94,56,19,29.81,6,NNW,4.6,,,,Scattered Clouds,330,2013-08-01 09:00:00
10:00 AM,93.2,57.2,30,29.92,6.2,NNW,4.6,-,N/A,,Partly Cloudy,330,2013-08-01 09:00:00
10:30 AM,95.0,53.6,25,29.92,6.2,NNW,3.5,-,N/A,,Partly Cloudy,330,2013-08-01 09:30:00
11:00 AM,98.6,51.8,21,29.92,6.2,WNW,4.6,-,N/A,,Partly Cloudy,300,2013-08-01 10:00:00
11:30 AM,98.6,51.8,21,29.92,6.2,NNW,4.6,-,N/A,,Partly Cloudy,330,2013-08-01 10:30:00
12:00 PM,100.4,53.6,21,29.92,6.2,NNW,3.5,-,N/A,,Partly Cloudy,340,2013-08-01 11:00:00
12:30 PM,102.2,51.8,18,29.92,6.2,Variable,4.6,-,N/A,,Partly Cloudy,0,2013-08-01 11:30:00
1:00 PM,105,50,9,29.75,6,NNW,4.6,,,,Scattered Clouds,340,2013-08-01 12:00:00
1:00 PM,105.8,50.0,15,29.92,6.2,NNW,5.8,-,N/A,,Partly Cloudy,330,2013-08-01 12:00:00
1:30 PM,105.8,48.2,14,29.89,6.2,North,5.8,-,N/A,,Partly Cloudy,350,2013-08-01 12:30:00
2:00 PM,109.4,46.4,12,29.89,6.2,NNW,5.8,-,N/A,,Partly Cloudy,340,2013-08-01 13:00:00
2:30 PM,111.2,44.6,11,29.89,6.2,NW,6.9,-,N/A,,Partly Cloudy,310,2013-08-01 13:30:00
3:00 PM,111.2,44.6,11,29.86,6.2,Variable,4.6,-,N/A,,Partly Cloudy,0,2013-08-01 14:00:00
3:30 PM,111.2,44.6,11,29.86,6.2,NNE,3.5,-,N/A,,Scattered Clouds,30,2013-08-01 14:30:00
4:00 PM,111,45,5,29.70,6,ENE,5.8,,,,Scattered Clouds,60,2013-08-01 15:00:00
4:00 PM,111.2,44.6,11,29.86,6.2,NE,5.8,-,N/A,,Scattered Clouds,50,2013-08-01 15:00:00
4:30 PM,109.4,59.0,19,29.86,6.2,West,19.6,-,N/A,,Scattered Clouds,260,2013-08-01 15:30:00
5:00 PM,105.8,62.6,24,29.86,6.2,West,20.7,-,N/A,,Partly Cloudy,270,2013-08-01 16:00:00
5:30 PM,105.8,57.2,20,29.86,6.2,West,17.3,-,N/A,,Partly Cloudy,260,2013-08-01 16:30:00
6:00 PM,105.8,53.6,18,29.89,6.2,West,16.1,-,N/A,,Partly Cloudy,270,2013-08-01 17:00:00
6:30 PM,102.2,57.2,22,29.89,6.2,West,23.0,36.8,N/A,,Partly Cloudy,280,2013-08-01 17:30:00
7:00 PM,99,58,17,29.76,6,NW,15.0,,,,Partly Cloudy,310,2013-08-01 18:00:00
7:00 PM,98.6,57.2,25,29.89,6.2,NW,15.0,-,N/A,,Partly Cloudy,320,2013-08-01 18:00:00
7:30 PM,96.8,57.2,27,29.92,6.2,West,11.5,-,N/A,,Partly Cloudy,270,2013-08-01 18:30:00
8:00 PM,95.0,57.2,28,29.92,6.2,Variable,2.3,-,N/A,,Partly Cloudy,0,2013-08-01 19:00:00
8:30 PM,96.8,57.2,27,29.95,6.2,SE,9.2,-,N/A,,Partly Cloudy,130,2013-08-01 19:30:00
9:00 PM,93.2,64.4,38,29.95,6.2,SW,11.5,-,N/A,,Partly Cloudy,220,2013-08-01 20:00:00
9:30 PM,87.8,64.4,46,29.95,6.2,WSW,13.8,-,N/A,,Partly Cloudy,240,2013-08-01 20:30:00
10:00 PM,85,65,41,29.88,6,West,9.2,,,,Partly Cloudy,270,2013-08-01 21:00:00
10:00 PM,86.0,64.4,48,29.98,6.2,West,10.4,-,N/A,,Partly Cloudy,280,2013-08-01 21:00:00
10:30 PM,84.2,64.4,51,30.01,6.2,WSW,6.9,-,N/A,,Partly Cloudy,250,2013-08-01 21:30:00
11:00 PM,82.4,62.6,51,29.98,6.2,West,6.9,-,N/A,,Partly Cloudy,270,2013-08-01 22:00:00
11:30 PM,82.4,62.6,51,30.01,6.2,WSW,5.8,-,N/A,,Partly Cloudy,240,2013-08-01 22:30:00